Preview of NWS' New Version of Forecast
This preview is not operational and should not be used for support decisions.

Regional Weather Roundup (RWR)

Issued by National Weather Service (NWS)

                            
000
ASUS45 KABQ 201010
RWRNM 
NEW MEXICO REGIONAL WEATHER ROUNDUP
NATIONAL WEATHER SERVICE ALBUQUERQUE NM
400 AM MDT TUE AUG 20 2019

NOTE: "FAIR" MEANS FEW OR NO CLOUDS BELOW 12,000 FEET AGL WITH NO
       SIGNIFICANT WEATHER OR OBSTRUCTIONS TO VISION.

      THIS PRODUCT IS RELEASED AS TWO VERSIONS.  ONE VERSION NEAR
      THE TOP OF THE HOUR CONTAINING PRELIMINARY DATA FROM ALBUQUERQUE
      AND OTHER STATIONS.  A FINAL VERSION WITH ADDITIONAL DATA IS 
      ISSUED ABOUT 10 MINUTES AFTER THE HOUR.
 
NMZ501-503-504-510>518-201100-
NORTHWEST PLATEAU/NORTHCENTRAL MOUNTAINS
  
CITY           SKY/WX    TMP DP  RH WIND       PRES   REMARKS
FARMINGTON     FAIR      62  29  28 CALM      30.17R                  
LOS ALAMOS       N/A     69  40  33 S6        30.32S                  
SANTA FE       FAIR      65  44  46 CALM      30.26R                  
TAOS             N/A     53  33  46 N6        30.34R                  
ANGEL FIRE     FAIR      37  35  90 CALM      30.45S                  

$$
NMZ402-403-502-505>509-201100-
WESTCENTRAL MOUNTAINS/SOUTHWEST MOUNTAINS
  
CITY           SKY/WX    TMP DP  RH WIND       PRES   REMARKS
GALLUP         FAIR      53  24  32 S3        30.27R                  
GRANTS         FAIR      51  32  47 NW8       30.28S                  
SILVER CITY    MOCLDY    68  39  34 NE5       30.16S                  

$$
NMZ407-409-411-412-201100-
SOUTHERN DESERTS
  
CITY           SKY/WX    TMP DP  RH WIND       PRES   REMARKS
DEMING         FAIR      76  52  43 W5        30.06S                  
LAS CRUCES     FAIR      75  49  40 CALM      30.10R                  
HOLLOMAN AFB   FAIR      73  50  43 NW7       30.08R                  
ALAMOGORDO     FAIR      77  46  33 NW8       30.08R                  
T OR C         FAIR      75  44  33 W6        30.11F                  

$$
NMZ519>523-201100-
CENTRAL VALLEYS/CENTRAL HIGHLANDS
  
CITY           SKY/WX    TMP DP  RH WIND       PRES   REMARKS
ALBUQUERQUE    FAIR      72  44  36 SE5       30.17S                  
MORIARTY ARPT  FAIR      56  45  66 NE3       30.27S                  
CLINES CORNERS FAIR      64  44  48 W6        30.32S                  
BELEN          FAIR      69  42  36 SE5       30.15S                  
SOCORRO        FAIR      68  43  40 S6        30.13S                  

$$
NMZ524>526-539-540-201100-
SOUTHCENTRAL MOUNTAINS
  
CITY           SKY/WX    TMP DP  RH WIND       PRES   REMARKS
RUIDOSO        FAIR      64  48  55 CALM      30.33S                  

$$
NMZ527>531-201100-
NORTHEAST HIGHLANDS/NORTHEAST PLAINS
  
CITY           SKY/WX    TMP DP  RH WIND       PRES   REMARKS
LAS VEGAS      FAIR      60  44  55 S10       30.31R                  
RATON          FAIR      58  44  60 N5        30.25R                  
CLAYTON        FAIR      69  48  47 SW9       30.15R                  

$$
NMZ532>537-201100-
EASTCENTRAL PLAINS
  
CITY           SKY/WX    TMP DP  RH WIND       PRES   REMARKS
TUCUMCARI      FAIR      67  51  56 SE5       30.09R                  
CANNON AFB     CLOUDY    74  55  50 SW5       30.15R                  
CLOVIS AIRPORT FAIR      77  57  50 S12       30.14S                  

$$
NMZ028-029-538-201100-
SOUTHEAST PLAINS
  
CITY           SKY/WX    TMP DP  RH WIND       PRES   REMARKS
ROSWELL        FAIR      83  53  35 S13       30.08R                  
ARTESIA        FAIR      81  57  44 S10       30.09S                  
CARLSBAD       FAIR      76  57  51 SE5       30.05S                  
HOBBS          FAIR      79  57  47 S10       30.10S                  


$$